This is the latest recevied weather packets stored in our database for station/object DG4DAZ-6. If no packets are shown the sender has not sent any weather packets the latest 1 day(s).
| Time | Temp. | Humidity | Pressure | Rain* | Wind** | Luminosity | Snow |
|---|---|---|---|---|---|---|---|
| 1778055835 | 8.89° C | 97% | 1004.1 hPa | 0.25 mm | - | 131 W/m² | - |
| 1778055236 | 8.33° C | 97% | 1004.2 hPa | 0 mm | - | 119 W/m² | - |
| 1778054035 | 8.33° C | 97% | 1004.2 hPa | 0.51 mm | - | 69 W/m² | - |
| 1778052835 | 8.89° C | 97% | 1004.1 hPa | 0.76 mm | - | 49 W/m² | - |
| 1778051636 | 8.89° C | 97% | 1004.1 hPa | 1.02 mm | - | 69 W/m² | - |
| 1778050435 | 8.89° C | 97% | 1004 hPa | 0.76 mm | - | 56 W/m² | - |
| 1778049236 | 8.89° C | 97% | 1003.9 hPa | 0.76 mm | - | 63 W/m² | - |
| 1778048635 | 8.89° C | 97% | 1003.8 hPa | 0.76 mm | - | 46 W/m² | - |
| 1778047434 | 8.89° C | 97% | 1003.7 hPa | 0.76 mm | - | 43 W/m² | - |
| 1778046836 | 8.89° C | 97% | 1003.7 hPa | 0.51 mm | - | 42 W/m² | - |
| 1778046236 | 8.89° C | 97% | 1003.7 hPa | 0.51 mm | - | 32 W/m² | - |
| 1778045035 | 8.89° C | 97% | 1003.7 hPa | 0.25 mm | - | 29 W/m² | - |
| 1778044434 | 8.89° C | 97% | 1003.7 hPa | 0.25 mm | - | 38 W/m² | - |
| 1778043835 | 8.89° C | 97% | 1003.7 hPa | 0.25 mm | - | 32 W/m² | - |
| 1778043235 | 8.89° C | 97% | 1003.7 hPa | 0.25 mm | - | 24 W/m² | - |
| 1778042634 | 8.89° C | 97% | 1003.7 hPa | 0.51 mm | - | 14 W/m² | - |
| 1778040836 | 8.89° C | 97% | 1003.7 hPa | 0.25 mm | - | 0 W/m² | - |
| 1778040235 | 9.44° C | 97% | 1003.7 hPa | 0.25 mm | - | 0 W/m² | - |
| 1778039635 | 9.44° C | 97% | 1003.7 hPa | 0.51 mm | - | 0 W/m² | - |
| 1778039035 | 9.44° C | 97% | 1003.7 hPa | 0.51 mm | - | 0 W/m² | - |
| 1778038434 | 9.44° C | 97% | 1003.8 hPa | 0.51 mm | - | 0 W/m² | - |
| 1778037834 | 9.44° C | 97% | 1003.7 hPa | 0.76 mm | - | 0 W/m² | - |
| 1778037235 | 9.44° C | 97% | 1003.8 hPa | 0.76 mm | - | 0 W/m² | - |
| 1778036634 | 9.44° C | 97% | 1003.9 hPa | 0.76 mm | - | 0 W/m² | - |
| 1778036034 | 9.44° C | 97% | 1004 hPa | 0.76 mm | - | 0 W/m² | - |
* Rain latest hour (hover to see other rain measurements)
** Current wind speed in m/s (hover to see current wind gust speed)